Wind_Speed
19 19 20 19 19 21 21 22 23 22 23 24 27 28 28 28 29 30 31 32 33 35 37 38 39 40 41 40 41 41 42 43 43 44 44 44 44 45 45 45 46 47 47 46
19 19 20 20 20 21 22 22 23 24 23 25 26 28 30 30 30 30 31 32 33 35 36 36 37 38 39 39 39 40 41 42 42 43 44 43 43 43 44 45 45 46 46 44
21 21 21 21 20 21 23 24 25 26 26 27 28 29 30 31 32 32 31 32 33 34 35 35 36 36 36 37 38 39 40 41 41 42 42 43 43 42 43 44 44 44 44 44
22 22 22 22 22 23 24 25 26 27 27 29 30 31 31 32 33 33 33 32 32 33 34 35 35 35 36 37 38 38 38 39 40 40 41 42 42 43 42 42 43 42 43 43
23 23 23 22 23 24 25 25 26 28 29 30 31 31 32 32 33 33 34 33 33 33 34 34 34 35 36 36 37 37 37 37 37 37 39 39 40 42 42 42 41 41 41 41
24 24 24 23 24 25 26 27 28 29 30 31 31 31 30 31 32 32 33 33 32 33 33 33 34 35 35 35 34 34 34 33 34 35 36 37 38 39 39 40 39 39 39 39
24 24 24 23 24 25 27 28 29 30 31 31 30 30 30 30 31 32 32 32 31 32 32 33 33 34 33 33 33 32 32 32 33 34 35 36 36 36 37 36 36 37 37 36
23 23 23 23 24 25 27 28 28 29 29 30 30 30 31 31 31 31 31 31 32 32 33 33 33 34 34 34 34 33 33 32 32 33 34 35 35 34 34 35 35 35 35 35
23 23 24 25 25 26 28 28 29 30 30 30 30 30 31 31 31 31 30 31 31 31 31 32 33 33 34 34 33 33 32 32 33 33 34 34 34 34 33 34 34 34 35 36
25 24 25 26 27 28 29 29 30 30 30 30 30 30 30 30 30 29 30 30 30 30 30 30 31 31 31 31 31 31 31 31 31 32 32 32 32 32 33 33 33 34 34 35
26 25 26 27 28 29 30 31 31 30 30 30 30 30 30 29 29 29 29 29 29 29 29 29 31 30 30 30 29 29 29 29 29 29 29 30 30 30 31 32 33 34 34 34
27 28 29 29 29 30 30 31 32 32 31 30 30 29 29 29 29 29 29 29 29 29 29 30 30 30 29 28 28 28 28 28 28 28 27 27 28 28 29 30 30 31 31 31
29 30 30 30 31 31 32 32 32 32 31 30 30 29 29 29 29 29 28 28 29 29 29 30 30 29 28 27 26 26 26 27 27 27 27 27 27 27 27 27 28 29 29 29
30 30 31 32 32 32 32 32 32 32 31 31 30 29 29 29 29 29 28 29 29 29 29 29 29 28 28 26 25 24 25 26 26 26 26 26 26 26 25 26 26 28 29 30
31 32 32 33 33 33 32 32 31 31 31 30 30 30 30 29 29 29 29 29 28 29 29 28 28 27 27 26 25 24 24 24 25 25 25 26 26 26 25 26 27 27 29 29
31 32 33 33 33 32 32 31 31 30 30 30 30 30 30 30 29 29 29 29 28 28 28 28 26 26 26 25 25 25 24 24 24 24 24 24 25 25 26 26 26 27 28 29
31 31 31 32 32 31 31 30 30 30 30 31 30 30 30 30 30 30 29 29 29 28 28 27 26 25 25 25 25 24 24 23 23 23 23 23 24 25 25 26 26 26 27 28
30 30 30 30 29 29 29 29 29 29 30 30 31 31 30 30 30 30 29 29 28 28 27 26 26 25 25 25 25 24 23 23 22 22 22 22 23 24 24 24 25 25 25 26
29 29 28 28 28 28 27 28 28 29 29 29 30 29 29 29 29 29 28 28 28 27 26 26 25 25 25 25 25 24 23 22 21 21 21 21 22 23 23 23 23 23 23 24
28 27 27 27 28 28 27 28 28 29 29 29 28 28 27 26 26 26 26 26 26 26 25 25 24 24 24 24 23 22 22 21 20 20 20 21 21 21 21 21 21 22 22 23
27 26 26 27 27 27 28 28 28 28 28 27 27 27 25 25 24 24 24 24 24 23 23 23 23 23 23 22 21 20 19 19 19 19 19 19 19 19 20 21 21 22 22 23
27 27 27 27 27 27 27 27 27 27 26 26 25 25 24 23 23 23 23 22 22 22 22 23 22 22 21 21 20 19 19 19 19 18 19 19 19 20 20 21 22 22 23 23
26 26 27 27 27 27 26 26 25 25 24 24 23 23 23 22 22 22 22 22 22 22 22 22 22 21 20 19 18 18 18 18 18 18 19 20 20 20 21 21 22 22 23 23
26 26 26 27 27 26 25 25 25 24 24 23 23 22 22 21 21 21 21 21 21 22 22 22 21 20 18 18 17 17 17 17 17 18 19 20 21 21 21 21 21 22 22 23
25 26 26 26 26 25 24 24 24 24 24 23 23 22 22 22 22 21 20 20 20 21 21 20 20 19 18 17 16 16 16 17 18 18 18 19 20 21 21 22 22 22 23 23
24 24 24 24 24 24 23 23 23 23 23 23 22 22 22 22 21 21 21 21 20 20 19 18 18 18 18 18 18 18 18 18 18 19 19 20 20 20 20 21 22 22 23 23
25 24 24 24 23 23 22 22 22 22 21 21 21 21 21 21 21 21 21 21 20 20 19 18 17 17 18 19 19 19 19 19 19 19 20 20 20 20 21 21 21 22 22 22
Wind_Direction
267 268 269 271 272 274 278 281 283 285 285 285 284 283 283 280 278 278 277 277 277 276 276 276 276 278 278 276 275 273 270 268 267 264 262 261 261 260 260 260 261 262 262 263
266 268 269 271 271 272 276 281 283 285 286 287 288 285 284 282 280 280 281 280 279 279 279 279 279 279 278 277 276 274 271 269 267 264 262 261 260 259 260 260 261 261 261 260
268 268 271 273 276 276 277 280 283 285 286 286 287 287 286 283 281 281 282 282 282 281 281 282 282 281 279 278 278 274 272 270 267 264 261 261 260 260 260 260 261 262 259 259
273 273 272 277 279 280 280 281 283 284 286 286 286 286 285 285 285 283 284 284 283 283 283 283 283 282 282 281 279 276 274 272 268 265 263 262 261 261 261 261 259 260 258 257
273 275 276 278 281 282 282 281 284 285 286 287 288 287 285 285 285 285 286 285 285 284 285 284 284 283 282 282 280 278 276 273 269 266 264 263 263 263 262 261 259 258 257 256
273 276 277 279 280 281 282 282 284 286 287 289 290 289 287 284 284 284 285 285 286 286 286 285 285 284 283 282 282 280 277 275 270 267 265 265 265 263 262 260 258 257 256 257
275 277 280 281 282 284 286 288 287 288 289 290 290 290 289 287 285 285 285 285 286 286 286 286 286 285 284 283 281 279 276 273 270 271 268 267 266 264 262 261 258 257 257 258
276 278 282 284 285 286 288 291 292 293 293 292 291 291 291 289 287 286 285 285 285 286 287 287 286 285 284 282 280 278 275 274 274 272 268 266 266 265 263 261 260 259 258 260
277 280 282 283 285 286 288 292 294 294 294 294 293 293 294 292 289 288 287 286 286 288 289 289 289 287 285 284 280 278 276 276 275 274 270 268 267 265 264 263 261 260 260 261
277 280 282 284 286 288 290 292 294 294 294 294 294 294 295 293 292 292 291 290 288 289 289 291 292 292 289 286 282 280 277 278 276 273 270 268 266 265 264 263 263 262 261 261
279 282 282 284 287 288 289 291 293 293 294 295 294 294 295 294 293 293 293 293 292 291 290 292 295 294 292 287 283 281 280 279 279 275 270 267 267 266 265 264 263 263 262 260
281 282 284 285 286 287 288 290 292 294 293 294 294 294 294 294 292 292 293 293 293 291 292 293 296 297 294 289 284 283 282 280 278 274 271 269 268 267 266 264 262 261 260 260
281 283 284 287 288 289 289 290 291 292 291 292 293 293 293 293 293 292 292 292 292 292 293 294 294 294 295 292 288 284 281 280 278 275 271 269 268 267 265 262 261 260 259 260
283 285 287 288 289 290 290 290 290 291 290 291 291 291 292 292 293 292 292 291 292 292 293 293 293 293 294 293 290 287 283 280 276 273 270 268 267 265 264 263 262 261 261 262
285 286 288 288 289 290 290 289 289 290 291 290 289 291 291 291 291 291 291 291 291 292 293 292 292 292 292 292 291 290 287 283 278 273 271 270 268 266 265 265 265 264 263 263
285 286 287 288 289 288 288 289 289 290 290 290 290 290 291 291 291 291 291 291 292 292 293 292 290 290 290 291 292 291 288 284 281 277 274 272 271 270 270 270 270 269 268 267
287 287 286 287 287 287 288 289 290 291 292 291 290 290 290 290 291 291 290 289 291 292 291 290 289 288 288 290 291 292 290 286 283 280 277 275 274 274 273 272 272 272 270 269
287 288 288 289 289 289 289 289 290 292 293 294 293 291 290 290 290 290 290 289 289 289 289 289 288 287 287 289 289 288 288 287 284 281 277 276 275 275 274 274 273 273 273 272
286 287 288 288 290 290 290 291 292 294 296 297 296 294 293 292 291 290 290 290 288 286 286 287 287 287 287 287 287 286 286 286 285 282 278 277 276 276 274 272 272 273 273 273
286 287 287 289 291 290 290 291 292 294 296 297 297 296 295 294 293 292 292 291 288 286 285 285 287 287 288 288 287 286 284 284 284 283 282 280 278 276 275 274 272 272 273 273
285 286 288 290 292 292 291 291 292 293 295 296 297 297 296 294 293 293 293 292 290 287 285 286 287 287 287 287 285 284 283 282 282 282 283 283 281 278 276 275 274 274 274 275
284 285 287 290 293 295 294 293 293 294 296 296 296 297 297 296 294 293 293 292 290 287 285 285 286 286 286 285 284 283 282 282 281 281 283 283 283 282 281 277 276 276 276 277
284 286 288 290 293 295 296 294 295 295 296 296 297 298 298 298 296 294 292 292 290 289 286 284 284 283 283 283 283 284 283 282 281 281 282 283 283 282 282 281 280 279 280 281
286 288 288 290 292 294 295 295 294 294 295 296 296 297 298 299 298 297 295 294 293 291 288 284 281 280 279 280 283 285 284 284 284 285 285 284 283 283 282 282 282 281 282 283
287 288 289 291 292 293 294 295 294 294 295 295 295 297 297 297 297 298 298 298 297 295 291 286 279 275 275 278 281 284 285 285 286 289 290 290 288 286 284 283 284 284 286 286
288 289 289 291 293 294 295 297 297 297 298 298 297 297 298 298 298 298 298 299 299 297 292 287 281 276 274 276 279 283 285 286 288 290 292 292 292 291 290 288 287 287 287 287
288 288 289 289 290 292 294 296 297 298 299 300 299 298 297 298 298 298 299 300 299 297 293 288 283 279 277 277 279 282 284 285 287 290 292 293 293 294 294 292 291 289 289 288
Height
5638 5637 5637 5638 5638 5637 5636 5635 5635 5635 5634 5633 5631 5629 5628 5627 5625 5624 5622 5620 5618 5617 5615 5613 5610 5608 5605 5602 5600 5598 5598 5598 5598 5599 5600 5602 5604 5606 5608 5609 5611 5612 5613 5615
5633 5633 5632 5633 5633 5632 5631 5630 5630 5629 5629 5627 5625 5622 5621 5619 5617 5616 5614 5612 5610 5607 5605 5602 5600 5597 5594 5591 5589 5587 5586 5586 5586 5587 5588 5590 5592 5594 5596 5597 5599 5600 5601 5603
5628 5628 5627 5628 5629 5627 5626 5625 5624 5623 5623 5620 5618 5616 5613 5611 5609 5607 5605 5603 5601 5598 5596 5593 5590 5586 5583 5581 5578 5577 5576 5575 5575 5576 5577 5579 5580 5582 5583 5585 5587 5588 5590 5592
5621 5622 5622 5626 5623 5622 5620 5620 5618 5616 5614 5613 5611 5608 5606 5603 5601 5599 5597 5594 5592 5589 5586 5584 5581 5577 5574 5571 5568 5566 5565 5565 5564 5565 5566 5568 5569 5570 5572 5573 5575 5577 5579 5581
5615 5615 5616 5618 5617 5615 5613 5613 5611 5609 5607 5605 5602 5600 5598 5595 5593 5590 5588 5586 5583 5580 5578 5575 5572 5569 5565 5562 5559 5557 5556 5555 5555 5555 5557 5558 5559 5560 5560 5562 5564 5566 5568 5570
5610 5609 5609 5612 5610 5607 5607 5606 5604 5602 5599 5597 5594 5593 5591 5587 5585 5582 5580 5577 5574 5572 5569 5566 5563 5560 5557 5554 5551 5549 5548 5547 5547 5547 5548 5548 5549 5549 5550 5551 5553 5555 5557 5559
5604 5602 5604 5605 5603 5601 5601 5600 5596 5594 5591 5589 5586 5584 5582 5579 5576 5573 5571 5568 5566 5563 5560 5558 5555 5552 5549 5546 5544 5542 5541 5540 5539 5539 5538 5539 5539 5540 5541 5542 5544 5546 5548 5549
5598 5597 5600 5598 5596 5595 5593 5591 5588 5586 5583 5581 5578 5575 5573 5570 5567 5565 5563 5560 5557 5555 5552 5549 5546 5544 5541 5538 5536 5534 5533 5532 5531 5530 5529 5529 5529 5530 5531 5533 5535 5536 5538 5540
5593 5594 5592 5590 5589 5587 5585 5583 5581 5578 5576 5573 5570 5568 5565 5562 5559 5557 5554 5551 5549 5547 5544 5541 5538 5535 5532 5530 5527 5525 5524 5523 5522 5521 5521 5521 5521 5522 5523 5524 5526 5528 5530 5531
5586 5586 5585 5583 5581 5579 5577 5575 5573 5570 5568 5565 5562 5559 5557 5554 5551 5549 5546 5544 5541 5538 5536 5533 5530 5527 5524 5521 5519 5517 5516 5514 5513 5512 5512 5512 5513 5514 5515 5516 5517 5519 5521 5523
5578 5579 5577 5576 5573 5572 5569 5567 5565 5562 5559 5557 5554 5551 5548 5546 5543 5541 5538 5536 5533 5530 5528 5525 5522 5518 5515 5513 5511 5509 5508 5506 5505 5504 5504 5504 5504 5505 5506 5507 5508 5510 5512 5513
5571 5570 5568 5568 5565 5563 5561 5559 5557 5554 5551 5548 5545 5543 5540 5538 5535 5533 5530 5528 5525 5522 5520 5517 5514 5511 5507 5505 5503 5501 5500 5499 5498 5497 5496 5496 5496 5497 5497 5499 5500 5501 5503 5504
5562 5561 5559 5558 5557 5554 5552 5550 5548 5545 5543 5540 5538 5535 5532 5529 5527 5524 5522 5520 5517 5514 5512 5509 5506 5503 5500 5498 5496 5494 5493 5491 5490 5490 5489 5489 5489 5490 5490 5491 5492 5493 5495 5496
5553 5552 5550 5549 5547 5545 5543 5540 5538 5536 5534 5531 5529 5526 5524 5521 5518 5516 5514 5511 5509 5506 5503 5501 5499 5496 5494 5491 5489 5487 5486 5485 5484 5483 5483 5483 5483 5483 5483 5484 5485 5486 5487 5488
5545 5543 5541 5539 5537 5535 5533 5531 5529 5527 5525 5523 5520 5518 5515 5513 5510 5508 5505 5503 5501 5498 5495 5493 5491 5489 5487 5485 5483 5481 5480 5478 5477 5476 5476 5476 5476 5476 5476 5477 5477 5478 5478 5479
5536 5534 5532 5530 5528 5526 5524 5522 5520 5518 5516 5514 5511 5509 5506 5504 5502 5499 5497 5495 5493 5490 5488 5486 5484 5482 5480 5478 5477 5475 5473 5472 5470 5470 5469 5469 5469 5469 5469 5469 5469 5470 5470 5471
5526 5524 5522 5521 5519 5517 5515 5513 5511 5509 5507 5505 5502 5500 5497 5495 5493 5491 5488 5486 5485 5483 5481 5479 5477 5475 5473 5472 5470 5468 5467 5465 5464 5463 5463 5462 5462 5462 5462 5462 5462 5462 5462 5462
5517 5515 5513 5512 5510 5508 5506 5505 5503 5501 5498 5496 5493 5491 5488 5486 5484 5482 5480 5478 5477 5475 5473 5471 5469 5468 5467 5465 5464 5462 5461 5459 5458 5457 5456 5456 5455 5455 5455 5455 5454 5454 5454 5454
5508 5507 5505 5503 5501 5500 5498 5496 5494 5492 5490 5487 5484 5482 5480 5478 5476 5474 5472 5470 5469 5467 5466 5464 5462 5461 5460 5458 5457 5455 5454 5453 5452 5450 5450 5449 5448 5448 5447 5447 5447 5447 5447 5447
5500 5499 5497 5496 5494 5492 5490 5488 5486 5484 5482 5479 5476 5474 5471 5469 5467 5466 5464 5462 5461 5459 5458 5457 5455 5454 5453 5451 5450 5449 5448 5447 5446 5445 5444 5443 5442 5441 5441 5441 5440 5440 5440 5440
5492 5491 5490 5488 5487 5485 5483 5481 5479 5476 5474 5471 5468 5466 5464 5462 5460 5458 5457 5456 5454 5452 5451 5450 5449 5447 5446 5445 5444 5442 5441 5441 5440 5439 5438 5437 5436 5435 5435 5434 5434 5434 5433 5433
5484 5483 5482 5481 5480 5478 5476 5473 5471 5469 5466 5463 5461 5459 5457 5455 5453 5451 5450 5449 5447 5445 5444 5443 5442 5441 5439 5438 5437 5437 5436 5435 5434 5433 5432 5432 5431 5430 5429 5428 5428 5427 5427 5427
5477 5476 5475 5474 5472 5470 5468 5466 5464 5462 5459 5457 5455 5452 5450 5449 5447 5445 5444 5442 5440 5439 5438 5437 5435 5434 5433 5432 5431 5431 5430 5429 5428 5427 5427 5426 5425 5424 5423 5422 5421 5421 5420 5420
5470 5469 5467 5466 5464 5463 5461 5459 5457 5455 5453 5450 5448 5446 5445 5443 5441 5439 5437 5436 5434 5432 5431 5430 5429 5428 5427 5427 5426 5425 5424 5423 5423 5422 5421 5420 5419 5418 5417 5416 5415 5415 5414 5413
5463 5461 5460 5459 5457 5455 5454 5452 5450 5448 5446 5444 5442 5440 5439 5437 5435 5433 5432 5430 5428 5427 5425 5424 5423 5422 5422 5421 5421 5420 5419 5418 5417 5416 5415 5414 5413 5412 5411 5410 5409 5408 5407 5406
5455 5454 5453 5451 5450 5448 5447 5445 5443 5441 5439 5438 5436 5434 5432 5431 5429 5428 5426 5424 5422 5421 5419 5418 5417 5417 5417 5416 5416 5415 5414 5413 5412 5411 5410 5409 5407 5406 5405 5403 5402 5401 5400 5399
5448 5447 5446 5444 5443 5441 5440 5438 5437 5435 5433 5431 5430 5428 5426 5425 5423 5422 5420 5418 5417 5415 5414 5413 5412 5411 5411 5410 5410 5409 5408 5408 5407 5406 5404 5403 5402 5400 5399 5398 5396 5395 5394 5393